Home   Weather   Jalandhar   Past weeks

Flag for India Past Weather in Jalandhar, Punjab, India — Yesterday and Last 2 Weeks

Now
46 °F

Fog.


Feels Like: 46 °F
Forecast: 45 / 64 °F
Wind: No wind

Location: Amritsar Airport

Current Time: Jan 22, 2018 at 6:20:26 am

Latest Report: Jan 22, 2018 at 4:30 am


Visibility: 1 mi

Pressure: 29.92 "Hg

Humidity: 100%

Dew Point: 46 °F

Location of JalandharLocation

Past Weather in Jalandhar — Graph

°F

Jalandhar Temperature Yesterday

Maximum temperature yesterday: 72 °F (at 2:00 pm)
Minimum temperature yesterday: 41 °F (at 7:30 am)
Average temperature yesterday: 54 °F

High & Low Weather Summary for the Past Weeks

 TemperatureHumidityPressure
High72 °F (Jan 15, 3:00 pm)100% (Jan 7, 4:30 am)30.18 "Hg (Jan 7, 4:30 am)
Low36 °F (Jan 9, 7:00 am)0% (Jan 15, 12:30 am)29.86 "Hg (Jan 16, 6:00 pm)
Average54 °F77%30.01 "Hg
* Reported Jan 7 4:30 am — Jan 22 4:30 am, Jalandhar. Weather by CustomWeather, © 2018

Note: Actual official high and low records may vary slightly from our data, if they occured in-between our weather recording intervals... More about our weather records

Advertising

Jalandhar Weather History for the Previous 24 Hours

Scroll right to see more
 ConditionsComfort  
Time TempWeatherWind HumidityBarometerVisibility
4:30 am
Mon, Jan 22
46 °FFog.No wind100%29.92 "Hg1 mi
3:30 am46 °FFog.No wind100%29.95 "Hg1 mi
3:00 am46 °FFog.No wind100%29.95 "Hg1 mi
2:30 am48 °FFog.No wind100%29.95 "Hg1 mi
2:00 am48 °FFog.6 mph100%29.95 "Hg1 mi
1:30 am48 °FFog.6 mph100%29.95 "Hg1 mi
1:00 am48 °FFog.6 mph100%29.95 "Hg1 mi
12:30 am48 °FFog.No wind100%29.95 "Hg1 mi
12:00 am48 °FFog.No wind100%29.95 "Hg1 mi
11:30 pm
Sun, Jan 21
48 °FFog.2 mph100%29.98 "Hg1 mi
11:00 pm50 °FFog.No wind100%29.98 "Hg1 mi
10:30 pm52 °FFog.No wind100%29.98 "Hg1 mi
10:00 pm50 °FFog.No wind100%29.98 "Hg1 mi
9:30 pm54 °FFog.No wind88%29.98 "Hg1 mi
9:00 pm52 °FFog.No wind82%29.98 "Hg1 mi
8:30 pm54 °FFog.No wind88%29.95 "Hg1 mi
8:00 pm55 °FHaze.No wind82%29.95 "Hg1 mi
7:30 pm57 °FHaze.No wind72%29.95 "Hg1 mi
7:00 pm61 °FHaze.No wind59%29.95 "Hg2 mi
6:00 pm63 °FHaze.No wind59%29.92 "Hg2 mi
5:30 pm66 °FHaze.No wind56%29.92 "Hg2 mi
5:00 pm68 °FHaze.No wind46%29.92 "Hg2 mi
4:30 pm70 °FHaze.2 mph40%29.92 "Hg2 mi
4:00 pm72 °FHaze.2 mph36%29.92 "Hg2 mi
3:30 pm72 °FHaze.2 mph33%29.92 "Hg2 mi
3:00 pm72 °FHaze.3 mph29%29.95 "Hg2 mi
2:30 pm72 °FHaze.6 mph33%29.95 "Hg2 mi
2:00 pm72 °FHaze.3 mph29%29.95 "Hg2 mi
1:00 pm70 °FHaze.5 mph35%29.98 "Hg2 mi
12:00 pm64 °FFog.2 mph52%30.01 "Hg1 mi
11:30 am63 °FFog.2 mph64%30.01 "Hg1 mi
11:00 am61 °FFog.2 mph77%30.01 "Hg1 mi
10:30 am57 °FFog.2 mph88%30.01 "Hg1 mi
10:00 am54 °FCool.No wind94%30.01 "Hg1 mi
9:30 am50 °FCool.2 mph100%29.98 "Hg1 mi
9:00 am46 °FCool.No wind100%29.98 "Hg1 mi
8:30 am45 °FQuite cool.No wind100%29.95 "Hg1 mi
8:00 am41 °FQuite cool.No wind100%29.95 "Hg1 mi
7:30 am41 °FQuite cool.No wind100%29.92 "Hg1 mi
6:30 am43 °FFog.No wind100%29.92 "Hg1 mi
6:00 am43 °FFog.No wind100%29.92 "Hg1 mi
Weather by CustomWeather, © 2018

See weather overview